SL-12 R/B(AUX MOTOR), 33473

Orbit data source: Space-Track

SL-12 R/B(AUX MOTOR), 33473 is space debris in HEO originally from a launch on Thu, 25 Dec 2008 UTC launched from the Tyuratam Missile And Space Complex (TTMTR). Debris objects in space refer to the collection of defunct objects orbiting the Earth. Examples of debris include non-operational satellites, rocket bodies, and fragments generated from explosions, collisions, or faulty payload assembly.

Loading next visibility...
Identifier
33473, 2008-067H
Orbit
HEO
Country
Flag of CISCIS
Related business
Manufacturer
RKKE
Mission
Spacecraft
Bus & Motor
SOZ, Unknown motor
Mass
56 kg wet, 56 kg dry
Launch date (UTC)
2008-12-25 (17 years ago)
Launch vehicle
Unknown
Launch site
Tyuratam Missile And Space Complex (TTMTR)
Object type
Payload
Rocket body
Debris
Shape & HBR
Cyl, 0.6 m
Radar Cross Section
0.660 m², Medium (>0.1 m² and < 1m²)

Expand to show TLE details & history
Last TLE update: 1 week ago

TLE from 1 week ago
0 SL-12 R/B(AUX MOTOR)
1 33473U 08067H   26118.04298437  .00000086  00000-0  18318-3 0  9994
2 33473  65.3227 156.3785 5558712 260.4538  35.8592  4.26223778154039
Epoch: 2026-04-28T01:01Z
TLE epoch observation values (Epoch: 2026-04-28T01:01:53.849Z)
Latitude
-0.00005°
Longitude
-75.12122°
Altitude
5,863.811 km
Speed
6.35 km/s
True Right ascension
10h 25m 30s
True Declination
0° 00' 00"
Sunlit
Object was in daylight at epoch
Visualization orbit readout
Latitude
Unknown
Longitude
Unknown
Altitude
Unknown
Speed
Unknown
Apparent Right ascension
Unknown
Apparent Declination
Unknown
Sunlit
N/A
Visualization observer readout
Local Sidereal Time
19:12:34
Azimuth
Unknown
Elevation
Unknown
Doppler factor
Unknown
Orbital elements
Apogee altitude
18,620.704 km
Perigee altitude
757.868 km
Semi-major axis
16,067.423 km
Eccentricity
0.55587
Inclination
65.3227°
RAAN
156.3785°
Arg. of periapsis
260.4538°
True anomaly
99.63709°
Mean anomaly
35.8592°
Eccentric anomaly
64.63885°
Mean motion
1.06567 °/min
Orbital period
337.81 mins
BSTAR
0.00018318
Loading maneuver chart data...
Computing Atmospheric mass density...
Loading historical data...
Loading historical data...
Loading historical data...
Loading historical data...
Loading historical data...
Loading historical data...
Loading historical data...

Documentation

Showing up to 5 results
|